Location: Astronomy Club of Akron Observatory
(40.9700°N, 81.5606°W)
Time: 18:06:08
(UTC-04:00)

ATLAS 2AS CENTAUR R/B - Visible Passes

Search period start: 29 September 2016 00:00
Search period end: 09 October 2016 00:00
Orbit: 909 x 1303 km, 63.7° (Epoch: 27 September)

Date Brightness Start Highest point End Pass type
(mag) Time Alt. Az. Time Alt. Az. Time Alt. Az.
29 Sep 4.3 02:54:39 33° NNE 02:54:39 33° NNE 02:58:50 10° NNE visible
29 Sep 4.5 04:42:05 21° NW 04:43:26 22° NNW 04:49:30 10° NNE visible
29 Sep 5.0 06:34:17 10° NNW 06:38:00 13° N 06:41:42 10° NNE visible
30 Sep 4.8 02:11:19 23° NE 02:11:19 23° NE 02:13:59 10° NE visible
30 Sep 4.3 03:58:45 28° NNW 03:58:45 28° NNW 04:04:46 10° NNE visible
30 Sep 5.0 05:48:06 10° NW 05:52:04 14° N 05:56:05 10° NNE visible
01 Oct 5.3 01:27:58 14° NE 01:27:58 14° NE 01:29:01 10° NE visible
01 Oct 4.4 03:15:25 30° N 03:15:25 30° N 03:20:03 10° NNE visible
01 Oct 4.9 05:02:51 13° NW 05:06:13 16° NNW 05:10:54 10° NNE visible
01 Oct 5.1 06:56:45 10° NNW 07:01:04 15° NNE 07:05:22 10° NE visible
02 Oct 4.7 02:32:03 26° NNE 02:32:03 26° NNE 02:35:20 10° NNE visible
02 Oct 4.7 04:19:29 19° NNW 04:20:28 19° NNW 04:26:00 10° NNE visible
02 Oct 5.1 06:11:23 10° NNW 06:15:11 14° N 06:18:58 10° NNE visible
03 Oct 5.1 01:48:40 19° NNE 01:48:40 19° NNE 01:50:32 10° NNE visible
03 Oct 4.6 03:36:06 24° NNW 03:36:06 24° NNW 03:41:14 10° NNE visible
03 Oct 5.1 05:25:29 10° NNW 05:29:15 14° N 05:33:01 10° NNE visible
04 Oct 5.4 01:05:17 12° NE 01:05:17 12° NE 01:05:40 10° NE visible
04 Oct 4.7 02:52:43 24° N 02:52:43 24° N 02:56:32 10° NNE visible
04 Oct 5.0 04:40:09 12° NW 04:43:21 15° NNW 04:47:36 10° NNE visible
04 Oct 5.1 06:33:25 10° NNW 06:38:12 16° NNE 06:42:54 10° NE visible
05 Oct 5.0 02:09:20 21° NNE 02:09:20 21° NNE 02:11:49 10° NNE visible
05 Oct 4.9 03:56:45 17° NNW 03:57:32 17° NNW 04:02:33 10° NNE visible
05 Oct 5.2 05:48:17 10° NNW 05:52:21 14° N 05:56:23 10° NE visible
06 Oct 5.3 01:25:56 15° NNE 01:25:56 15° NNE 01:27:04 10° NNE visible
06 Oct 4.9 03:13:22 20° NNW 03:13:22 20° NNW 03:17:43 10° NNE visible
06 Oct 5.2 05:02:44 10° NNW 05:06:26 13° N 05:10:08 10° NNE visible
06 Oct 5.0 06:54:48 10° NNW 07:00:56 23° NNE 07:06:53 10° ENE visible
07 Oct 5.0 02:29:57 20° N 02:29:57 20° N 02:32:59 10° NNE visible
07 Oct 5.1 04:17:23 11° NNW 04:20:30 14° N 04:24:25 10° NNE visible
07 Oct 5.1 06:10:01 10° NNW 06:15:17 18° NNE 06:20:27 10° ENE visible
08 Oct 5.2 01:46:33 17° NNE 01:46:33 17° NNE 01:48:17 10° NNE visible
08 Oct 5.0 03:33:59 15° NNW 03:34:38 16° NNW 03:39:11 10° NNE visible
08 Oct 5.2 05:25:03 10° NNW 05:29:30 15° NNE 05:33:54 10° NE visible
